• In Deutschland
  • Länderverzeichnis
  • Für 7 Tage
  • Wassertemperatur
  • Satellitenkarten
  • Wetterkarte
  • Widgets
  • user-avatar
    Anmelden

    Stündliche Wetter Vaterstetten

    Heute, 23 September, Sonntag

    Zeit Temperatur Niederschläge Wind Luftdruck Luftfeuchtigkeit
    00:00 +13°C° 0.3 mm 1 m/S 717 mmHg 83%
    01:00 +13°C° 0 mm 2 m/S 717 mmHg 89%
    02:00 +13°C° 0.3 mm 2 m/S 717 mmHg 90%
    03:00 +13°C° 0.3 mm 1 m/S 716 mmHg 91%
    04:00 +13°C° 0.3 mm 1 m/S 716 mmHg 93%
    05:00 +13°C° 0.8 mm 2 m/S 716 mmHg 93%
    06:00 +13°C° 0.8 mm 2 m/S 715 mmHg 94%
    07:00 +13°C° 0 mm 2 m/S 715 mmHg 92%
    08:00 +14°C° 0.4 mm 2 m/S 715 mmHg 91%
    09:00 +14°C° 0.4 mm 3 m/S 714 mmHg 91%
    10:00 +16°C° 0.4 mm 3 m/S 714 mmHg 90%
    11:00 +17°C° 0.1 mm 3 m/S 714 mmHg 87%
    12:00 +19°C° 0.1 mm 4 m/S 714 mmHg 84%
    13:00 +20°C° 0.1 mm 5 m/S 713 mmHg 80%
    14:00 +21°C° 0.1 mm 5 m/S 712 mmHg 76%
    15:00 +23°C° 0.1 mm 5 m/S 712 mmHg 71%
    16:00 +25°C° 0.1 mm 5 m/S 711 mmHg 66%
    17:00 +23°C° 0.1 mm 6 m/S 710 mmHg 68%
    18:00 +22°C° 0.1 mm 6 m/S 710 mmHg 71%
    19:00 +21°C° 0.1 mm 6 m/S 709 mmHg 73%
    20:00 +18°C° 1.9 mm 7 m/S 710 mmHg 79%
    21:00 +16°C° 1.9 mm 7 m/S 710 mmHg 84%
    22:00 +13°C° 1.9 mm 8 m/S 711 mmHg 90%
    23:00 +11°C° 1.7 mm 7 m/S 713 mmHg 91%

    Morgen, 24 September, Montag

    Zeit Temperatur Niederschläge Wind Luftdruck Luftfeuchtigkeit
    00:00 +10°C° 1.7 mm 6 m/S 715 mmHg 92%
    01:00 +8°C° 1.7 mm 5 m/S 716 mmHg 93%
    02:00 +8°C° 0.3 mm 5 m/S 717 mmHg 93%
    03:00 +7°C° 0.3 mm 4 m/S 718 mmHg 93%
    04:00 +7°C° 0.3 mm 4 m/S 719 mmHg 94%
    05:00 +7°C° 0.2 mm 4 m/S 719 mmHg 94%
    06:00 +6°C° 0.2 mm 4 m/S 720 mmHg 94%
    07:00 +6°C° 0.2 mm 4 m/S 721 mmHg 94%
    08:00 +7°C° 0.1 mm 4 m/S 722 mmHg 88%
    09:00 +7°C° 0.1 mm 4 m/S 722 mmHg 83%
    10:00 +8°C° 0.1 mm 4 m/S 723 mmHg 78%
    11:00 +10°C° 0.1 mm 4 m/S 723 mmHg 72%
    12:00 +11°C° 0.1 mm 4 m/S 724 mmHg 67%
    13:00 +11°C° 0.1 mm 4 m/S 724 mmHg 61%
    14:00 +11°C° 0.1 mm 4 m/S 724 mmHg 61%
    15:00 +11°C° 0.1 mm 4 m/S 724 mmHg 60%
    16:00 +11°C° 0.1 mm 3 m/S 724 mmHg 60%
    17:00 +10°C° 0 mm 3 m/S 724 mmHg 65%
    18:00 +8°C° 0 mm 2 m/S 724 mmHg 70%
    19:00 +8°C° 0 mm 1 m/S 725 mmHg 75%
    20:00 +7°C° 0 mm 1 m/S 725 mmHg 76%
    21:00 +7°C° 0 mm 1 m/S 726 mmHg 78%
    22:00 +6°C° 0 mm 1 m/S 726 mmHg 80%
    23:00 +6°C° 0 mm 1 m/S 726 mmHg 81%

    übermorgen, 25 September, Dienstag

    Zeit Temperatur Niederschläge Wind Luftdruck Luftfeuchtigkeit
    00:00 +5°C° 0 mm 1 m/S 726 mmHg 83%
    01:00 +5°C° 0 mm 1 m/S 726 mmHg 84%
    02:00 +5°C° 0 mm 1 m/S 726 mmHg 86%
    03:00 +4°C° 0 mm 1 m/S 726 mmHg 87%
    04:00 +3°C° 0 mm 0 m/S 726 mmHg 89%
    05:00 +3°C° 0 mm 0 m/S 727 mmHg 88%
    06:00 +4°C° 0 mm 0 m/S 727 mmHg 87%
    07:00 +5°C° 0 mm 1 m/S 727 mmHg 86%
    08:00 +7°C° 0 mm 1 m/S 727 mmHg 77%
    09:00 +8°C° 0 mm 2 m/S 727 mmHg 68%
    10:00 +10°C° 0 mm 2 m/S 727 mmHg 59%
    11:00 +12°C° 0 mm 2 m/S 727 mmHg 55%
    12:00 +11°C° 0 mm 3 m/S 727 mmHg 51%
    13:00 +12°C° 0 mm 3 m/S 726 mmHg 47%
    14:00 +12°C° 0 mm 3 m/S 726 mmHg 49%
    15:00 +12°C° 0 mm 3 m/S 726 mmHg 51%
    16:00 +12°C° 0 mm 3 m/S 725 mmHg 53%
    17:00 +10°C° 0 mm 3 m/S 726 mmHg 60%
    18:00 +8°C° 0 mm 2 m/S 726 mmHg 66%
    19:00 +6°C° 0 mm 2 m/S 726 mmHg 73%
    20:00 +5°C° 0 mm 2 m/S 726 mmHg 74%
    21:00 +5°C° 0 mm 2 m/S 726 mmHg 75%
    22:00 +4°C° 0 mm 2 m/S 726 mmHg 77%
    23:00 +4°C° 0 mm 2 m/S 726 mmHg 77%

    26 September, Mittwoch

    Zeit Temperatur Niederschläge Wind Luftdruck Luftfeuchtigkeit
    00:00 +3°C° 0 mm 2 m/S 726 mmHg 78%
    01:00 +3°C° 0 mm 2 m/S 726 mmHg 78%
    02:00 +3°C° 0 mm 2 m/S 726 mmHg 79%
    03:00 +3°C° 0 mm 2 m/S 725 mmHg 79%
    04:00 +2°C° 0 mm 2 m/S 725 mmHg 79%
    05:00 +3°C° 0 mm 2 m/S 725 mmHg 78%
    06:00 +4°C° 0 mm 1 m/S 725 mmHg 76%
    07:00 +4°C° 0 mm 1 m/S 725 mmHg 75%
    08:00 +7°C° 0 mm 1 m/S 725 mmHg 67%
    09:00 +10°C° 0 mm 1 m/S 725 mmHg 59%
    10:00 +13°C° 0 mm 1 m/S 725 mmHg 51%
    11:00 +15°C° 0 mm 1 m/S 725 mmHg 49%
    12:00 +16°C° 0 mm 1 m/S 725 mmHg 47%
    13:00 +19°C° 0 mm 1 m/S 725 mmHg 45%
    14:00 +18°C° 0 mm 1 m/S 724 mmHg 48%
    15:00 +18°C° 0 mm 1 m/S 724 mmHg 51%
    16:00 +18°C° 0 mm 1 m/S 724 mmHg 53%
    17:00 +14°C° 0 mm 0 m/S 724 mmHg 62%
    18:00 +11°C° 0 mm 0 m/S 724 mmHg 70%
    19:00 +9°C° 0 mm 0 m/S 724 mmHg 78%
    20:00 +10°C° 0 mm 1 m/S 724 mmHg 79%
    21:00 +9°C° 0 mm 1 m/S 724 mmHg 80%
    22:00 +9°C° 0 mm 1 m/S 724 mmHg 80%
    23:00 +9°C° 0 mm 1 m/S 724 mmHg 81%

    27 September, Donnerstag

    Zeit Temperatur Niederschläge Wind Luftdruck Luftfeuchtigkeit
    00:00 +9°C° 0 mm 1 m/S 724 mmHg 81%
    01:00 +9°C° 0 mm 1 m/S 724 mmHg 82%
    02:00 +8°C° 0 mm 1 m/S 724 mmHg 82%
    03:00 +8°C° 0 mm 1 m/S 724 mmHg 81%
    04:00 +8°C° 0 mm 1 m/S 724 mmHg 81%
    05:00 +8°C° 0 mm 1 m/S 724 mmHg 80%
    06:00 +9°C° 0 mm 1 m/S 724 mmHg 79%
    07:00 +9°C° 0 mm 1 m/S 724 mmHg 78%
    08:00 +12°C° 0 mm 1 m/S 724 mmHg 70%
    09:00 +14°C° 0 mm 0 m/S 724 mmHg 63%
    10:00 +17°C° 0 mm 0 m/S 724 mmHg 56%
    11:00 +18°C° 0 mm 0 m/S 723 mmHg 53%
    12:00 +21°C° 0 mm 1 m/S 723 mmHg 49%
    13:00 +22°C° 0 mm 1 m/S 723 mmHg 46%
    14:00 +22°C° 0 mm 1 m/S 722 mmHg 50%
    15:00 +22°C° 0 mm 1 m/S 722 mmHg 53%
    16:00 +21°C° 0 mm 1 m/S 721 mmHg 57%
    17:00 +19°C° 0 mm 1 m/S 721 mmHg 65%
    18:00 +15°C° 0 mm 1 m/S 721 mmHg 73%
    19:00 +13°C° 0 mm 1 m/S 720 mmHg 81%
    20:00 +12°C° 0 mm 1 m/S 720 mmHg 82%
    21:00 +12°C° 0 mm 1 m/S 720 mmHg 83%
    22:00 +12°C° 0 mm 1 m/S 720 mmHg 84%
    23:00 +11°C° 0 mm 1 m/S 720 mmHg 83%

    28 September, Freitag

    Zeit Temperatur Niederschläge Wind Luftdruck Luftfeuchtigkeit
    00:00 +11°C° 0 mm 1 m/S 719 mmHg 83%
    01:00 +11°C° 0 mm 1 m/S 719 mmHg 83%
    02:00 +10°C° 0 mm 2 m/S 719 mmHg 82%
    03:00 +10°C° 0 mm 2 m/S 719 mmHg 81%
    04:00 +9°C° 0 mm 2 m/S 718 mmHg 80%
    05:00 +10°C° 0 mm 2 m/S 718 mmHg 79%
    06:00 +10°C° 0 mm 2 m/S 718 mmHg 79%
    07:00 +11°C° 0 mm 1 m/S 718 mmHg 78%
    08:00 +14°C° 0 mm 1 m/S 718 mmHg 71%
    09:00 +16°C° 0 mm 1 m/S 718 mmHg 64%
    10:00 +20°C° 0 mm 1 m/S 718 mmHg 57%
    11:00 +21°C° 0 mm 1 m/S 718 mmHg 55%
    12:00 +22°C° 0 mm 1 m/S 717 mmHg 53%
    13:00 +23°C° 0 mm 1 m/S 717 mmHg 51%
    14:00 +23°C° 0 mm 1 m/S 717 mmHg 54%
    15:00 +23°C° 0 mm 1 m/S 716 mmHg 57%
    16:00 +22°C° 0 mm 1 m/S 716 mmHg 60%
    17:00 +20°C° 0 mm 1 m/S 716 mmHg 68%
    18:00 +18°C° 0 mm 1 m/S 716 mmHg 76%
    19:00 +13°C° 0 mm 0 m/S 716 mmHg 84%
    20:00 +13°C° 0 mm 0 m/S 716 mmHg 86%
    21:00 +13°C° 0 mm 1 m/S 716 mmHg 88%
    22:00 +13°C° 0 mm 1 m/S 716 mmHg 89%
    23:00 +12°C° 0 mm 1 m/S 716 mmHg 90%
    Mehr zeigen